Weather History for Piney Island, NC

Change the Weather History Date:

Wednesday, May 28, 2014

  Actual Average (KMRH) Record (KMRH)
Temperature  
Mean Temperature 81 °F -  
Max Temperature 91 °F 79 °F 87 °F (1965)
Min Temperature 72 °F 62 °F 45 °F (1961)
Cooling Degree Days 16    
Growing Degree Days 31 (Base 50)    
Moisture  
Dew Point 71 °F    
Average Humidity 76    
Maximum Humidity 94    
Minimum Humidity 50    
Precipitation  
Precipitation 0.00 in - - ()
Sea Level Pressure  
Sea Level Pressure 29.97 in    
Wind  
Wind Speed 10 mph (SW)    
Max Wind Speed 16 mph    
Max Gust Speed -    
Visibility 8 miles    
Events      
Averages and records for this station are not official NWS values.
T = Trace of Precipitation, MM = Missing Value Source: NWS Daily Summary

Daily Weather History Graph

Daily Weather History Graph

Search for Another Location

Airport:

Trip Planner

Search our weather history database for the weather conditions in past years. The results will help you decide how hot, cold, wet, or windy it might be!

Date:

Astronomy

May. 28, 2014 Rise Set
Actual Time 5:54 AM EDT 8:12 PM EDT
Civil Twilight 5:25 AM EDT 8:41 PM EDT
Nautical Twilight 4:50 AM EDT 9:16 PM EDT
Astronomical Twilight 4:11 AM EDT 9:55 PM EDT
Moon 5:56 AM EDT (5/28) 8:10 PM EDT (5/28)
Length of Visible Light 15h 15m
Length of Day
14h 17m
Waning Crescent, 0% of the Moon is Illuminated
May 28
Waning Crescent
May 28
New
Jun 5
First Quarter
Jun 13
Full
Jun 19
Last Quarter

Hourly Weather History & Observations

Time (EDT) Temp. Heat Index Dew Point Humidity Pressure Visibility Wind Dir Wind Speed Gust Speed Precip Events Conditions
12:56 AM 73.0 °F - 71.1 °F 93% 30.00 in 8.0 mi SSW 6.9 mph - N/A   Scattered Clouds
1:56 AM 72.0 °F - 69.1 °F 91% 29.98 in 9.0 mi SSW 8.1 mph - N/A   Clear
2:56 AM 73.0 °F - 69.1 °F 87% 29.98 in 9.0 mi SW 10.4 mph - N/A   Clear
3:56 AM 73.9 °F - 71.1 °F 91% 29.96 in 7.0 mi SW 13.8 mph - N/A   Clear
4:56 AM 73.9 °F - 72.0 °F 93% 29.96 in 7.0 mi SW 11.5 mph - N/A   Clear
5:56 AM 73.0 °F - 71.1 °F 93% 29.96 in 7.0 mi SW 10.4 mph - N/A   Clear
6:56 AM 73.9 °F - 71.1 °F 91% 29.98 in 6.0 mi WSW 11.5 mph - N/A   Clear
7:56 AM 75.9 °F - 72.0 °F 87% 29.99 in 7.0 mi WSW 13.8 mph - N/A   Clear
9:56 AM 79.0 °F - 71.1 °F 77% 29.99 in 8.0 mi WSW 16.1 mph - N/A   Clear
10:56 AM 81.0 °F 84.9 °F 71.1 °F 72% 30.00 in 8.0 mi West 13.8 mph - N/A   Clear
11:56 AM 82.9 °F 87.5 °F 71.1 °F 67% 30.00 in 9.0 mi West 11.5 mph - N/A   Clear
12:56 PM 84.9 °F 90.1 °F 71.1 °F 63% 29.99 in 9.0 mi WSW 9.2 mph - N/A   Clear
1:56 PM 88.0 °F 93.8 °F 71.1 °F 57% 29.98 in 10.0 mi West 10.4 mph - N/A   Clear
2:56 PM 90.0 °F 95.4 °F 70.0 °F 52% 29.96 in 9.0 mi SW 9.2 mph - N/A   Clear
3:56 PM 90.0 °F 95.4 °F 70.0 °F 52% 29.95 in 10.0 mi SW 6.9 mph - N/A   Partly Cloudy
4:56 PM 90.0 °F 94.5 °F 69.1 °F 50% 29.94 in 9.0 mi SW 6.9 mph - N/A   Mostly Cloudy
5:56 PM 87.1 °F 93.6 °F 72.0 °F 61% 29.94 in 9.0 mi SW 16.1 mph - N/A   Clear
6:56 PM 82.9 °F 88.8 °F 73.0 °F 72% 29.93 in 8.0 mi SW 12.7 mph - N/A   Clear
7:56 PM 78.1 °F - 66.9 °F 68% 29.97 in 10.0 mi East 6.9 mph - N/A   Partly Cloudy
8:56 PM 77.0 °F - 68.0 °F 74% 29.97 in 10.0 mi SSE 6.9 mph - N/A   Clear
9:56 PM 77.0 °F - 71.1 °F 82% 29.98 in 9.0 mi SSW 6.9 mph - N/A   Clear
10:56 PM 75.9 °F - 72.0 °F 87% 29.99 in 7.0 mi SSW 6.9 mph - N/A   Clear
11:56 PM 75.9 °F - 73.9 °F 94% 29.98 in 7.0 mi SW 6.9 mph - N/A   Clear